sat.trackr.live / text

‹ back to catalog

CHUANGXIN-3 (CX-3)

NORAD 39209 · 2013-037B

PAYLOAD ACTIVE UNKNOWN

§ Identity

Operator
Country
PRC
Launch date
2013-07-19
Launch site
TAISC
Launch vehicle
Mass (kg)
RCS (m²)
1.34

External: N2YO · Heavens-Above · Gunter

§ Orbital elements

Epoch: 2026-05-24T23:48:11.860416Z

Period
97.66 min
Inclination
98.0817°
Eccentricity
0.0003645
Mean motion
14.74558238 rev/d
Perigee alt
644.0 km
Apogee alt
649.1 km
Semi-major
7,024.7 km
B*
1.2532e-4
RAAN
151.2791°
Arg perigee
187.6306°
Mean anomaly
172.4847°
Rev number
68,893

§ Raw data

CHUANGXIN-3 (CX-3)1 39209U 13037B   26144.99180394  .00000783  00000+0  12532-3 0  99902 39209  98.0817 151.2791 0003645 187.6306 172.4847 14.74558238688937

JSON: /api/v1/satellites/39209 · /tle

For live sub-satellite position, see the globe view (requires WebGL).

§ Visibility from observer

Set your observer location to see the next 7 days of passes ≥ 10°. The values pass through the URL so the page stays shareable.

No JS? Fill the form by hand. The geolocation button needs JavaScript.